Wind_Speed
14 14 14 14 14 14 14 14 13 12 13 13 12 11 12 12 11 10 10 10 10 10 10 10 10 9 8 8 8 8 9 9 9 9 8 7 7 6 6 6 6 7 7 7
13 14 14 14 15 15 14 15 14 13 13 14 13 12 12 13 12 11 11 10 10 10 10 10 10 10 9 9 9 9 9 9 9 9 8 8 7 7 5 5 6 6 6 6
14 14 14 14 15 15 14 14 14 14 14 14 13 12 12 12 12 12 12 11 11 11 10 10 10 9 9 9 9 9 9 9 8 8 8 8 8 7 6 6 6 6 5 6
14 14 14 15 15 15 14 14 14 14 14 13 13 12 11 12 12 12 12 12 12 11 11 10 10 10 10 10 10 10 10 10 9 9 9 8 8 7 7 6 6 6 6 6
13 13 14 14 14 14 14 13 14 13 13 13 12 13 10 10 10 11 11 12 12 12 11 11 11 11 11 11 11 11 11 11 10 10 10 9 8 8 7 7 6 6 6 6
14 13 14 14 14 14 14 13 13 13 13 13 12 13 11 10 10 10 11 11 12 12 11 11 11 12 12 12 12 12 12 12 12 11 10 10 9 9 9 8 8 8 7 7
14 14 14 14 14 14 14 14 14 14 13 13 13 14 13 11 11 11 11 11 11 12 11 11 12 13 13 13 13 13 13 13 13 12 12 11 11 10 10 10 9 9 9 9
15 14 14 14 15 15 15 15 15 15 14 14 14 14 13 13 13 12 12 12 12 12 12 12 13 14 14 14 14 14 14 14 14 13 13 13 12 11 11 11 10 10 9 9
15 15 15 15 15 15 16 16 16 16 16 15 15 15 14 14 14 14 14 14 14 14 14 14 14 15 15 15 15 16 16 15 15 15 14 14 13 12 11 11 11 11 10 9
16 16 14 15 16 16 16 16 16 17 17 17 16 16 16 16 16 17 17 16 16 15 15 15 16 16 16 17 17 17 17 17 17 16 15 14 14 13 13 13 12 12 11 11
17 17 16 16 17 16 17 17 18 18 19 19 18 18 17 17 17 17 18 17 17 16 16 16 17 17 17 17 17 18 18 17 17 17 16 16 16 15 14 14 14 13 13 12
19 19 18 17 17 18 18 18 19 19 20 20 20 19 19 19 18 19 18 18 18 18 17 17 18 18 18 18 18 18 18 18 18 18 18 17 17 17 16 15 15 15 14 13
20 20 20 19 19 19 19 19 20 20 21 22 21 20 19 20 20 20 20 19 19 19 19 18 19 20 19 19 18 18 18 18 18 18 18 18 18 18 18 17 17 17 16 15
21 21 20 20 20 20 20 20 20 21 21 21 20 20 20 21 22 22 22 21 21 21 20 20 20 20 20 20 20 19 19 19 19 18 18 18 18 18 19 18 18 18 18 17
21 21 21 21 21 21 21 21 22 22 21 21 20 21 21 22 23 23 23 23 23 23 22 22 22 22 21 21 21 21 20 20 19 19 19 19 19 19 19 19 19 19 19 19
22 22 22 22 21 21 22 21 22 23 23 22 21 21 22 22 23 24 25 25 25 24 24 23 23 23 22 22 22 22 22 21 20 20 20 20 20 20 19 20 20 20 20 20
22 22 23 22 22 22 22 21 22 23 23 23 22 21 21 22 23 24 25 26 26 26 25 24 24 24 24 24 24 24 23 22 22 22 22 22 22 22 22 22 22 22 22 22
21 22 22 22 22 23 22 21 23 23 23 24 23 22 22 23 24 24 25 26 27 27 26 26 25 25 25 25 25 24 24 24 23 23 23 22 23 23 22 22 22 23 23 23
21 21 22 23 23 23 22 22 24 24 23 24 24 23 24 24 24 25 26 26 27 27 27 27 26 26 26 25 25 25 24 24 24 23 23 22 23 23 23 23 22 23 24 24
22 21 22 22 23 23 22 22 23 24 24 23 24 24 24 25 25 25 25 26 27 27 27 27 27 27 27 26 26 26 25 24 24 23 23 23 23 23 23 23 23 23 23 24
22 22 22 22 23 24 22 22 23 24 23 23 24 24 24 25 25 25 25 26 26 27 27 27 27 27 27 27 27 26 26 25 25 25 25 24 24 25 25 25 25 24 24 24
22 23 23 23 24 23 23 23 23 24 24 24 24 24 24 25 25 26 26 26 27 27 27 28 28 28 28 27 27 27 27 27 26 27 26 26 26 26 26 26 26 26 26 26
21 22 22 23 23 24 24 24 24 25 25 25 25 25 26 26 26 27 27 28 28 28 28 28 29 28 28 28 29 28 29 29 28 28 27 27 26 26 26 26 27 27 27 27
21 21 21 21 21 22 24 25 25 25 26 26 26 26 27 27 27 28 28 29 29 29 29 29 29 28 28 29 29 29 30 30 29 29 28 28 28 27 28 28 28 28 28 28
21 22 22 22 21 22 23 25 25 26 27 27 27 27 28 29 28 29 29 29 29 29 29 28 28 28 28 28 28 28 28 29 29 29 29 29 29 28 29 29 29 29 30 30
20 20 21 21 23 24 23 24 25 25 26 26 27 27 27 28 28 28 28 28 28 28 28 28 27 27 28 29 29 29 29 29 29 28 28 29 29 30 30 31 31 31 30 30
Wind_Direction
257 259 260 259 259 261 264 267 267 266 268 271 275 280 283 288 291 296 302 306 308 311 314 313 312 312 311 314 313 311 311 312 316 320 318 316 307 300 296 293 287 280 269 262
256 259 258 258 260 261 263 265 267 268 267 269 273 278 282 283 287 291 294 298 303 304 307 310 310 309 308 307 310 311 312 312 313 314 316 317 311 305 297 295 294 282 268 261
255 257 258 259 261 262 263 265 267 269 270 273 275 275 277 279 282 285 288 292 297 298 299 301 304 305 305 303 303 306 308 310 309 306 308 312 310 308 295 295 291 281 272 263
257 258 258 259 260 262 262 264 266 267 268 271 276 278 276 278 281 283 286 289 291 293 291 292 296 299 300 299 297 300 303 304 302 302 301 301 303 303 301 296 296 281 274 271
260 259 259 259 259 260 260 263 264 264 265 267 271 274 272 278 280 282 285 288 288 288 286 287 290 294 296 296 295 296 297 298 299 298 297 295 293 293 295 296 293 289 274 269
261 260 260 260 256 256 257 260 261 261 262 262 267 272 272 276 279 285 290 289 289 287 284 286 288 291 293 293 293 296 296 296 296 295 293 290 287 285 286 285 284 283 274 265
260 259 261 259 256 257 256 256 259 260 259 260 266 272 278 282 285 288 291 293 291 288 285 286 288 289 290 291 291 293 292 292 292 291 288 283 280 278 279 277 279 280 274 264
262 260 260 258 256 257 257 256 257 260 261 262 265 272 279 282 285 289 291 292 291 289 288 288 288 288 288 289 290 291 291 290 288 286 284 279 277 274 274 274 275 276 273 262
264 263 260 259 255 252 253 255 257 259 262 264 265 270 275 279 287 290 291 291 293 291 290 289 288 287 287 287 288 289 289 288 286 284 281 277 276 272 271 272 274 273 270 263
265 265 261 258 255 253 252 254 254 257 261 265 267 268 273 278 284 289 290 291 292 291 289 289 287 285 285 285 286 286 286 286 284 282 278 273 272 270 269 268 270 268 264 261
265 266 262 257 255 256 254 253 255 258 261 265 266 267 273 277 280 284 287 287 289 288 286 286 286 285 284 283 284 285 285 284 282 279 275 271 269 266 266 267 268 264 262 261
263 264 264 260 255 255 254 252 255 257 262 266 267 267 269 271 275 279 283 284 287 287 288 288 286 285 284 284 283 284 284 282 279 276 272 268 265 263 262 262 262 261 261 258
263 262 263 259 254 254 254 253 255 258 262 266 267 268 268 269 272 276 279 283 286 286 286 287 287 285 285 284 283 283 282 281 277 275 273 269 264 262 260 259 258 257 258 256
262 260 259 260 257 254 254 254 256 258 263 265 266 266 267 269 272 275 277 279 282 285 286 286 286 286 286 285 285 284 282 279 277 274 273 270 266 263 261 258 255 254 254 253
260 259 258 258 257 255 255 256 257 258 263 266 264 264 267 269 272 273 275 277 280 283 285 284 283 283 283 282 284 285 283 280 277 275 272 270 268 264 262 259 256 253 251 250
260 258 258 258 259 260 257 256 259 260 262 265 264 264 267 269 272 274 276 278 280 282 282 281 281 281 281 281 282 284 281 277 275 274 272 270 267 265 263 260 257 253 251 250
260 259 258 258 259 261 257 257 258 260 261 264 266 267 267 268 272 275 277 278 279 279 279 279 280 281 281 281 281 281 278 276 276 274 271 269 267 265 262 260 258 254 251 250
259 259 258 258 259 260 258 257 258 260 263 265 268 268 268 269 271 273 275 276 277 277 277 278 279 280 281 280 279 277 275 274 275 274 271 268 267 265 263 260 257 254 251 249
258 258 260 260 259 259 258 259 260 262 263 265 267 268 269 271 272 272 273 275 276 277 277 278 279 279 279 279 278 276 274 274 275 274 271 269 266 263 261 259 257 254 250 246
260 261 263 263 262 262 263 261 261 264 264 267 268 269 270 272 273 274 274 275 276 277 277 277 278 278 278 278 277 277 274 273 272 271 270 268 266 263 259 258 257 255 252 247
261 261 264 264 264 263 263 263 265 266 268 270 272 273 274 274 276 277 276 276 277 278 278 278 277 277 277 277 277 276 274 272 271 270 269 267 266 262 258 257 256 255 252 250
263 263 265 267 266 265 263 264 267 269 270 272 274 276 277 276 276 277 277 278 278 279 279 278 277 277 277 277 276 275 274 273 271 270 269 268 266 262 258 255 255 254 253 251
263 267 268 268 268 267 265 265 268 270 272 274 277 278 278 278 278 278 279 280 280 280 280 279 278 278 277 277 276 275 274 272 270 269 268 266 264 261 258 255 255 254 252 252
263 265 266 269 271 270 266 268 269 271 275 277 279 280 281 281 280 279 280 280 280 280 280 280 279 279 278 276 275 274 273 272 270 268 266 264 263 260 257 256 255 254 253 253
267 265 267 270 272 272 271 271 271 273 276 277 279 281 283 282 282 281 281 280 280 280 280 279 280 281 280 277 275 274 273 272 271 268 267 264 261 259 256 255 255 255 254 254
269 269 270 273 273 271 273 273 273 275 276 277 279 281 282 283 284 283 283 282 280 280 280 280 281 281 280 278 276 274 273 271 271 270 268 266 262 259 256 255 255 255 253 252
Height
5869 5870 5870 5870 5870 5870 5870 5870 5870 5871 5870 5870 5870 5870 5869 5868 5868 5867 5867 5866 5865 5864 5862 5861 5859 5858 5857 5856 5855 5854 5853 5851 5850 5849 5848 5847 5846 5845 5844 5844 5843 5843 5843 5843
5866 5866 5866 5866 5866 5866 5866 5867 5867 5867 5867 5867 5867 5867 5866 5865 5865 5864 5864 5863 5862 5861 5860 5859 5857 5856 5855 5854 5853 5852 5851 5849 5848 5847 5846 5845 5844 5843 5842 5842 5841 5841 5841 5841
5862 5863 5862 5862 5862 5862 5863 5863 5863 5863 5863 5863 5863 5863 5863 5862 5862 5861 5861 5860 5859 5859 5858 5857 5855 5854 5853 5852 5851 5850 5849 5848 5847 5846 5845 5844 5842 5842 5841 5841 5840 5839 5839 5840
5858 5859 5859 5858 5859 5859 5859 5860 5860 5860 5860 5859 5860 5859 5860 5859 5858 5858 5857 5857 5856 5856 5855 5854 5853 5852 5850 5850 5848 5848 5847 5846 5845 5844 5843 5842 5841 5840 5839 5839 5838 5838 5838 5838
5854 5855 5855 5855 5855 5855 5856 5856 5856 5856 5856 5856 5856 5856 5857 5855 5855 5855 5854 5853 5853 5852 5852 5851 5850 5849 5848 5847 5846 5845 5844 5843 5842 5841 5840 5840 5839 5838 5837 5837 5836 5836 5836 5836
5851 5851 5851 5851 5851 5852 5852 5852 5852 5852 5852 5853 5853 5852 5853 5852 5852 5852 5851 5850 5849 5849 5848 5848 5847 5846 5845 5844 5843 5842 5841 5840 5839 5838 5837 5837 5836 5836 5835 5835 5835 5834 5834 5834
5847 5847 5847 5847 5847 5848 5849 5849 5849 5848 5848 5849 5849 5848 5849 5849 5849 5848 5847 5847 5846 5846 5845 5844 5843 5843 5842 5841 5840 5839 5838 5837 5836 5835 5834 5834 5833 5833 5833 5832 5832 5832 5831 5831
5843 5844 5843 5843 5844 5844 5844 5845 5846 5846 5845 5845 5845 5844 5846 5845 5845 5844 5844 5843 5843 5842 5841 5840 5840 5839 5838 5837 5836 5835 5835 5833 5832 5831 5830 5830 5830 5829 5829 5829 5829 5829 5828 5828
5838 5839 5839 5839 5839 5840 5840 5840 5841 5841 5841 5841 5841 5841 5841 5841 5841 5840 5840 5839 5839 5838 5837 5836 5836 5835 5834 5833 5832 5831 5830 5829 5828 5827 5826 5826 5826 5825 5825 5825 5825 5825 5825 5825
5833 5834 5835 5835 5834 5835 5836 5836 5837 5836 5836 5836 5837 5836 5837 5837 5837 5836 5836 5835 5835 5834 5833 5832 5831 5831 5830 5829 5828 5827 5826 5825 5824 5823 5822 5822 5821 5821 5821 5822 5822 5822 5822 5822
5828 5829 5830 5830 5830 5830 5831 5832 5831 5832 5832 5832 5832 5834 5833 5833 5832 5832 5831 5831 5830 5830 5829 5828 5827 5826 5825 5824 5823 5822 5821 5820 5819 5818 5817 5817 5817 5817 5817 5817 5818 5818 5818 5818
5822 5823 5823 5825 5825 5825 5825 5826 5827 5827 5827 5827 5827 5831 5828 5828 5827 5827 5826 5826 5825 5825 5824 5823 5821 5820 5819 5818 5817 5816 5815 5814 5813 5813 5812 5812 5812 5812 5812 5813 5813 5814 5814 5815
5817 5817 5818 5819 5822 5821 5820 5820 5821 5821 5821 5821 5821 5825 5823 5822 5821 5821 5821 5821 5820 5819 5818 5817 5816 5815 5814 5813 5812 5811 5810 5809 5808 5807 5807 5807 5807 5807 5807 5808 5808 5809 5809 5810
5811 5811 5812 5813 5813 5814 5814 5815 5815 5815 5815 5815 5816 5817 5817 5816 5816 5815 5815 5815 5814 5813 5813 5811 5810 5810 5808 5807 5806 5805 5804 5803 5802 5802 5801 5801 5801 5801 5802 5802 5803 5803 5804 5805
5804 5804 5805 5806 5806 5807 5808 5808 5809 5809 5809 5810 5810 5810 5810 5810 5810 5809 5809 5808 5808 5807 5806 5805 5804 5803 5802 5801 5799 5798 5797 5797 5796 5796 5795 5795 5795 5795 5795 5796 5796 5797 5798 5799
5797 5798 5798 5799 5799 5799 5800 5802 5802 5802 5802 5803 5803 5804 5804 5804 5803 5803 5802 5802 5801 5800 5799 5799 5798 5796 5795 5794 5793 5792 5791 5790 5789 5789 5789 5789 5788 5789 5789 5789 5790 5791 5792 5793
5791 5791 5792 5793 5793 5792 5794 5796 5795 5796 5796 5796 5797 5798 5797 5797 5796 5796 5795 5794 5793 5793 5792 5791 5790 5789 5788 5787 5786 5785 5783 5783 5782 5782 5781 5781 5781 5781 5782 5782 5782 5784 5785 5786
5784 5784 5784 5786 5787 5787 5790 5789 5789 5789 5790 5790 5790 5790 5790 5790 5789 5788 5787 5786 5786 5785 5784 5783 5782 5781 5780 5779 5778 5777 5776 5775 5774 5774 5774 5774 5773 5774 5774 5775 5775 5776 5778 5779
5777 5777 5778 5778 5779 5780 5783 5782 5782 5782 5783 5783 5783 5783 5783 5782 5782 5781 5780 5779 5778 5777 5776 5775 5774 5773 5772 5771 5769 5768 5768 5767 5766 5766 5765 5765 5765 5766 5766 5767 5768 5769 5770 5772
5770 5771 5771 5771 5771 5773 5776 5775 5775 5776 5776 5776 5776 5775 5775 5774 5774 5774 5772 5771 5770 5769 5768 5767 5766 5765 5764 5762 5761 5760 5760 5759 5758 5758 5758 5757 5757 5758 5759 5760 5761 5761 5762 5764
5764 5764 5764 5764 5764 5765 5768 5768 5768 5769 5770 5769 5768 5768 5767 5767 5766 5766 5764 5763 5762 5760 5759 5758 5757 5756 5755 5754 5753 5752 5751 5751 5750 5749 5749 5749 5749 5749 5750 5752 5753 5754 5755 5756
5757 5757 5757 5757 5757 5761 5760 5760 5761 5761 5761 5760 5760 5759 5759 5759 5758 5756 5755 5754 5753 5752 5751 5749 5748 5747 5746 5745 5744 5743 5742 5742 5741 5740 5740 5740 5740 5740 5741 5743 5744 5745 5747 5748
5750 5751 5751 5752 5753 5753 5752 5752 5752 5752 5752 5752 5752 5752 5751 5750 5749 5748 5746 5745 5744 5743 5741 5740 5738 5738 5737 5736 5734 5733 5732 5731 5731 5730 5730 5731 5731 5731 5732 5733 5735 5736 5738 5740
5744 5744 5744 5744 5745 5745 5745 5745 5745 5745 5744 5744 5743 5743 5742 5741 5740 5738 5737 5736 5734 5733 5731 5730 5729 5728 5727 5726 5725 5723 5722 5721 5720 5720 5720 5721 5721 5722 5722 5724 5726 5727 5729 5731
5737 5737 5737 5737 5738 5737 5737 5737 5737 5737 5736 5736 5735 5734 5732 5731 5730 5729 5727 5726 5725 5723 5722 5720 5719 5718 5717 5716 5715 5713 5712 5711 5710 5710 5710 5711 5711 5711 5713 5714 5716 5718 5720 5721
5731 5730 5730 5730 5730 5730 5731 5730 5729 5729 5728 5727 5726 5725 5724 5722 5721 5719 5718 5716 5715 5713 5712 5711 5710 5708 5707 5706 5704 5703 5702 5701 5700 5700 5700 5700 5700 5701 5702 5704 5706 5707 5709 5711